Weather History for Sexton Summit, OR

Change the Weather History Date:

Thursday, October 6, 2011

  Actual Average Record
Temperature  
Mean Temperature 40 °F -  
Max Temperature 46 °F 59 °F 81 °F (2014)
Min Temperature 35 °F 44 °F 35 °F (2007)
Degree Days  
Heating Degree Days 24    
Moisture  
Dew Point 38 °F    
Average Humidity 89    
Maximum Humidity 100    
Minimum Humidity 76    
Precipitation  
Precipitation 0.00 in - - ()
Sea Level Pressure  
Sea Level Pressure 30.03 in    
Wind  
Wind Speed 4 mph (NE)    
Max Wind Speed 9 mph    
Max Gust Speed -    
Visibility 9 miles    
Events      
Averages and records for this station are not official NWS values.
T = Trace of Precipitation, MM = Missing Value Source: NWS Daily Summary

Daily Weather History Graph

Daily Weather History Graph

Search for Another Location

Airport:

Trip Planner

Search our weather history database for the weather conditions in past years. The results will help you decide how hot, cold, wet, or windy it might be!

Date:

Astronomy

Oct. 06, 2011 Rise Set
Actual Time 7:16 AM PDT 6:46 PM PDT
Civil Twilight 6:47 AM PDT 7:14 PM PDT
Nautical Twilight 6:15 AM PDT 7:47 PM PDT
Astronomical Twilight 5:42 AM PDT 8:19 PM PDT
Moon 4:08 PM PDT (10/6) 2:03 AM PDT (10/6)
Length of Visible Light 12h 26m
Length of Day
11h 30m
Waxing Gibbous, 76% of the Moon is Illuminated
Oct 6
Waxing Gibbous
Oct 11
Full
Oct 19
Last Quarter
Oct 26
New
Nov 2
First Quarter

Hourly Weather History & Observations

Time (PDT) Temp. Windchill Dew Point Humidity Pressure Visibility Wind Dir Wind Speed Gust Speed Precip Events Conditions
12:56 AM 35.1 °F 30.1 °F 35.1 °F 100% 29.80 in 10.0 mi SE 5.8 mph - N/A   Overcast
1:56 AM 35.1 °F 29.3 °F 35.1 °F 100% 29.81 in 10.0 mi ENE 6.9 mph - N/A   Overcast
2:56 AM 35.1 °F 30.1 °F 34.0 °F 96% 29.83 in 10.0 mi East 5.8 mph - N/A   Partly Cloudy
3:56 AM 35.1 °F 29.3 °F 35.1 °F 100% 29.85 in 9.0 mi NNE 6.9 mph - N/A   Clear
4:56 AM 35.1 °F 27.9 °F 34.0 °F 96% 29.86 in 10.0 mi NNE 9.2 mph - N/A   Clear
5:56 AM 35.1 °F 30.1 °F 35.1 °F 100% 29.89 in 10.0 mi NNE 5.8 mph - N/A   Clear
6:56 AM 36.0 °F 29.6 °F 34.0 °F 93% 29.92 in 10.0 mi NE 8.1 mph - N/A   Clear
7:56 AM 36.0 °F 31.1 °F 34.0 °F 93% 29.94 in 10.0 mi NE 5.8 mph - N/A   Clear
8:56 AM 39.0 °F 36.8 °F 35.1 °F 86% 29.96 in 10.0 mi East 3.5 mph - N/A   Clear
10:45 AM 41.0 °F - 39.2 °F 93% 29.97 in 4.0 mi Calm Calm - N/A   Partly Cloudy
10:56 AM 42.1 °F - 37.0 °F 82% 30.00 in 10.0 mi Calm Calm - N/A   Partly Cloudy
11:35 AM 44.6 °F - 39.2 °F 81% 29.99 in 2.5 mi Calm Calm - N/A   Mostly Cloudy
11:38 AM 42.8 °F 41.1 °F 37.4 °F 81% 29.99 in 4.0 mi NNW 3.5 mph - N/A   Mostly Cloudy
11:45 AM 41.0 °F - 35.6 °F 81% 30.00 in 10.0 mi Calm Calm - N/A   Mostly Cloudy
11:56 AM 41.0 °F - 36.0 °F 82% 30.03 in 10.0 mi Calm Calm - N/A   Partly Cloudy
12:56 PM 43.0 °F 41.3 °F 37.9 °F 82% 30.05 in 10.0 mi North 3.5 mph - N/A   Scattered Clouds
1:17 PM 44.6 °F - 37.4 °F 76% 30.03 in 10.0 mi Calm Calm - N/A   Mostly Cloudy
1:56 PM 46.0 °F - 39.0 °F 76% 30.06 in 10.0 mi Calm Calm - N/A   Overcast
2:31 PM 44.6 °F 43.1 °F 39.2 °F 81% 30.05 in 10.0 mi Variable 3.5 mph - N/A   Overcast
2:56 PM 44.1 °F - 37.9 °F 79% 30.07 in 10.0 mi Calm Calm - N/A   Mostly Cloudy
3:08 PM 44.6 °F - 39.2 °F 81% 30.06 in 10.0 mi Calm Calm - N/A   Mostly Cloudy
3:53 PM 46.4 °F - 39.2 °F 76% 30.06 in 10.0 mi Calm Calm - N/A   Mostly Cloudy
3:56 PM 46.0 °F - 39.9 °F 79% 30.08 in 10.0 mi Calm Calm - N/A   Mostly Cloudy
4:48 PM 44.6 °F - 41.0 °F 87% 30.07 in 10.0 mi Calm Calm - N/A   Overcast
4:56 PM 45.0 °F - 41.0 °F 86% 30.10 in 10.0 mi Calm Calm - N/A   Overcast
5:56 PM 43.0 °F - 39.0 °F 86% 30.12 in 10.0 mi Calm Calm - N/A   Overcast
6:56 PM 42.1 °F - 41.0 °F 96% 30.14 in 10.0 mi Calm Calm - N/A   Overcast
7:56 PM 41.0 °F - 39.9 °F 96% 30.15 in 10.0 mi Calm Calm - N/A   Overcast
8:32 PM 41.0 °F - 39.2 °F 93% 30.13 in 10.0 mi Calm Calm - N/A   Mostly Cloudy
8:56 PM 41.0 °F - 39.9 °F 96% 30.15 in 10.0 mi Calm Calm - N/A   Overcast
9:09 PM 41.0 °F - 39.2 °F 93% 30.13 in 10.0 mi Calm Calm - N/A   Mostly Cloudy
9:41 PM 41.0 °F - 39.2 °F 93% 30.13 in 10.0 mi Calm Calm - N/A   Overcast
9:56 PM 41.0 °F - 39.9 °F 96% 30.16 in 10.0 mi Calm Calm - N/A   Overcast
10:56 PM 41.0 °F - 41.0 °F 100% 30.15 in 10.0 mi Calm Calm - N/A   Overcast
11:47 PM 39.2 °F 35.0 °F 39.2 °F 100% 30.14 in 1.8 mi NNW 5.8 mph - N/A   Overcast
11:56 PM 39.9 °F 36.7 °F 39.9 °F 100% 30.16 in 0.8 mi NNW 4.6 mph - N/A   Mist